AirNav   Everest Fuels
 
 975 users online  

H68 Hefner-Easley Airport
Wagoner, Oklahoma, USA

GOING TO WAGONER?


FAA INFORMATION EFFECTIVE 02 DECEMBER 2021

Location

FAA Identifier: H68
Lat/Long: 35-57-56.5000N 095-20-30.5000W
35-57.941667N 095-20.508333W
35.9656944,-95.3418056
(estimated)
Elevation: 598.9 ft. / 182.5 m (surveyed)
Variation: 04E (2005)
From city: 2 miles E of WAGONER, OK
Time zone: UTC -6 (UTC -5 during Daylight Saving Time)
Zip code: 74467

Airport Operations

Airport use: Open to the public
Activation date: 12/1952
Control tower: no
ARTCC: KANSAS CITY CENTER
FSS: MC ALESTER FLIGHT SERVICE STATION
NOTAMs facility: MLC (NOTAM-D service available)
Attendance: UNATNDD
Wind indicator: yes
Segmented circle: yes
Lights: PAPI RWY 18 & 36 OPER CONSLY; MIRL RWY 18/36 ON DUSK-DAWN.
Beacon: white-green (lighted land airport)
Operates sunset to sunrise.

Airport Communications

CTAF: 122.9
TULSA APPROACH: 119.1
TULSA DEPARTURE: 119.1
WX AWOS-3PT at H71 (16 nm N): 120.1 (918-476-0517)
WX AWOS-3P at TQH (17 nm E): 118.425 (918-453-2729)
WX ASOS at MKO (19 nm S): 135.025 (918-683-6987)

Nearby radio navigation aids

VOR radial/distance  VOR name  Freq  Var
TULr115/25.7TULSA VORTAC114.4008E
OKMr049/30.3OKMULGEE VOR/DME114.9008E

Airport Services

Parking: tiedowns
Airframe service: MAJOR
Powerplant service: MAJOR
Bottled oxygen: NONE
Bulk oxygen: NONE

Runway Information

Runway 18/36

Dimensions: 3401 x 60 ft. / 1037 x 18 m
Surface: asphalt, in fair condition
Weight bearing capacity: 
Single wheel: 12.5
Runway edge lights: medium intensity
RUNWAY 18  RUNWAY 36
Latitude: 35-58.221520N35-57.661043N
Longitude: 095-20.510493W095-20.505978W
Elevation: 583.7 ft.598.9 ft.
Traffic pattern: leftleft
Runway heading: 176 magnetic, 180 true356 magnetic, 360 true
Markings: nonprecision, in fair conditionnonprecision, in fair condition
Visual slope indicator: 2-light PAPI on left (3.00 degrees glide path)2-light PAPI on right (3.00 degrees glide path)
Touchdown point: yes, no lightsyes, no lights
Obstructions: 28 ft. trees, 396 ft. from runway, 75 ft. left of centerline, 7:1 slope to clearnone

Airport Ownership and Management from official FAA records

Ownership: Publicly-owned
Owner: CITY OF WAGONER
PO BOX 406, 231 CHURCH ST.
WAGONER, OK 74467
Phone 918-485-2554
Manager: ROBYN MURRAY
231 CHURCH ST., 231 CHURCH ST.
WAGONER, OK 74467
Phone 918-485-2554
AFT HRS CTC 918-260-3896.

Airport Operational Statistics

Aircraft based on the field: 35
Single engine airplanes: 32
Multi engine airplanes: 1
Gliders airplanes: 1
Ultralights: 1
    
Aircraft operations: avg 77/week *
90% local general aviation
8% transient general aviation
2% military
* for 12-month period ending 19 November 2020

Additional Remarks

ULTRALIGHTS ON & INVOF ARPT.
N-S TURF USED FOR TWY ONLY.
FOR CD CTC MEMPHIS ARTCC AT 901-368-8453/8449.

Instrument Procedures

NOTE: All procedures below are presented as PDF files. If you need a reader for these files, you should download the free Adobe Reader.

NOT FOR NAVIGATION. Please procure official charts for flight.
FAA instrument procedures published for use from 02 December 2021 at 0901Z to 30 December 2021 at 0900Z.

 
IAPs - Instrument Approach Procedures
RNAV (GPS) RWY 18   download (182KB)
RNAV (GPS) RWY 36   download (247KB)
NOTE: Special Take-Off Minimums/Departure Procedures apply   download (131KB)

Other nearby airports with instrument procedures:

H71 - Mid-America Industrial Airport (16 nm N)
KTQH - Tahlequah Municipal Airport (17 nm E)
KMKO - Muskogee-Davis Regional Airport (19 nm S)
KGCM - Claremore Regional Airport (21 nm N)
KTUL - Tulsa International Airport (30 nm NW)
 
Loc | Ops | Rwys | IFR | FBO | Links
Com | Nav | Svcs | Stats | Notes
Area around H68 (Hefner-Easley Airport)
 
Road maps at: MapQuest Bing Google
 
Aerial photo
WARNING: Photo may not be current or correct
Aerial photo of H68 (Hefner-Easley Airport)
Photo by Brent Butler
Photo taken 17-Aug-2010
Sam landing at Wagoner

Do you have a better or more recent aerial photo of Hefner-Easley Airport that you would like to share? If so, please send us your photo.

 
Sectional chart

 
Airport distance calculator
Flying to Hefner-Easley Airport? Find the distance to fly.

From to H68

Sunrise and sunset
Times for 07-Dec-2021
 Local
(UTC-6)
 Zulu
(UTC)
Morning civil twilight06:5112:51
Sunrise07:2013:20
Sunset17:0623:06
Evening civil twilight17:3423:34

Current date and time
Zulu (UTC)  08-Dec-2021 01:45:43
Local (UTC-6)  07-Dec-2021 19:45:43
 
METAR
KH71 
16nm N 
080135Z AUTO 00000KT 10SM BKN055 BKN120 03/M02 A3003 RMK AO2
KTQH 
17nm E 
080135Z AUTO 00000KT 10SM CLR 04/M06 A3004 RMK AO2
KMKO 
19nm S 
080053Z AUTO 14005KT 10SM CLR 05/M04 A3003 RMK AO2 SLP170 T00501039
KGCM 
21nm N 
080135Z AUTO 00000KT 10SM CLR 03/M05 A3004 RMK AO2
KTUL 
30nm NW 
080053Z 09003KT 10SM OVC180 06/M04 A3002 RMK AO2 SLP169 T00611039
TAF
KTUL 
30nm NW 
071720Z 0718/0818 16008KT P6SM SCT150 BKN250 FM080000 15003KT P6SM BKN250 FM081500 15004KT P6SM SCT250
KRVS 
32nm W 
071720Z 0718/0818 16008KT P6SM SCT150 BKN250 FM080000 00000KT P6SM BKN250 FM081500 15004KT P6SM SCT250
NOTAMs
Click for the latest NOTAMs
NOTAMs are issued by the DoD/FAA and will open in a separate window not controlled by AirNav.

 

 
 

Aviation Businesses, Services, and Facilities

  
 Business Name 
 
 Contact 
 
 Services / Description 
 
Distance
 
Comments
  
Integrity Airmotive, LLC 918-640-7817
[email]
Flight training, Aerial tours / aerial sightseeing, Aircraft maintenance, Aircraft modifications, Aircraft cleaning / washing / detailing

More info about Integrity Airmotive, LLC
on airport  
   write
 

Would you like to see your business listed on this page?

 If your business provides an interesting product or service to pilots, flight crews, aircraft, or users of the Hefner-Easley Airport, you should consider listing it here.  To start the listing process, click on the button below
 
Add a business
 

Other Pages about Hefner-Easley Airport

Update a link
 
Copyright © AirNav, LLC. All rights reserved. Privacy Policy  Contact